Hourly Data Report for August 11, 2019

TORONTO CITY
ONTARIO
Current Station Operator: ECCC - MSC

43°40'00.000" N
79°24'00.000" W
112.50 m
6158355
71508
XTO

Download Data

Hourly Data (August 2019)
Hourly Data Report for August 11, 2019
TIME
LST
Temp Definition
°C
Dew Point Definition
°C
Rel Hum Definition
%
Precip. Amount Definition
mm

Wind Dir Definition
10's deg

Wind Spd Definition
km/h
Visibility Definition
km
Stn Press Definition
kPa
Hmdx Definition


Wind Chill Definition


Weather Definition


00:00 17.2 9.2 59 0.0       100.20     LegendNANA
01:00 16.1 8.9 62 0.0       100.22     LegendNANA
02:00 15.4 9.1 66 0.0       100.25     LegendNANA
03:00 15.1 9.9 71 0.0       100.26     LegendNANA
04:00 14.6 9.8 73 0.0       100.28     LegendNANA
05:00 14.2 10.1 76 0.0       100.29     LegendNANA
06:00 14.8 9.9 73 0.0       100.35     LegendNANA
07:00 17.7 9.6 59 0.0       100.38     LegendNANA
08:00 19.7 9.3 51 0.0       100.40     LegendNANA
09:00 22.4 9.2 43 0.0       100.41     LegendNANA
10:00 24.1 10.2 41 0.0       100.41 25   LegendNANA
11:00 25.0 10.5 40 0.0       100.38 27   LegendNANA
12:00 25.6 9.4 36 0.0       100.36 27   LegendNANA
13:00 25.8 11.6 41 0.0       100.30 28   LegendNANA
14:00 26.5 11.8 40 0.0       100.25 29   LegendNANA
15:00 25.0 11.9 44 0.0       100.22 27   LegendNANA
16:00 24.8 14.0 51 0.0       100.17 28   LegendNANA
17:00 24.9 15.5 56 0.0       100.12 29   LegendNANA
18:00 24.1 15.2 58 0.0       100.11 28   LegendNANA
19:00 23.0 14.9 60 0.0       100.08 27   LegendNANA
20:00 21.7 14.8 65 0.0       100.08 26   LegendNANA
21:00 20.3 14.5 69 0.0       100.10     LegendNANA
22:00 20.3 14.4 69 0.0       100.09     LegendNANA
23:00 20.1 14.8 72 0.0       100.07     LegendNANA

Notes on Data Quality.

Legend

  • E = Estimated
  • M = Missing
  • NA = Not Available*
  • [empty] = Indicates an unobserved value
Date modified: